Location: Malcolm X Square
(37.7810°N, 122.4297°W)
Time: 23:58:36
(UTC+00:00)

Cosmos 1766 - Pass Details

Date: 13 April 2024
Orbit: 487 x 505 km, 82.5° (Epoch: 21 May)

Event Time Altitude Azimuth Distance (km) Brightness Sun altitude
Rises 12:42:39 0° 351° (N) 2,571 6.9 -11.0°
Reaches altitude 10° 12:44:46 10° 350° (N) 1,682 5.9 -10.6°
Maximum altitude 12:48:27 76° 264° (W) 506 3.0 -9.9°
Drops below altitude 10° 12:52:05 10° 179° (S) 1,665 5.6 -9.3°
Sets 12:54:10 0° 177° (S) 2,541 6.5 -8.9°
